SJV935 WIPP-WAHI

Flight info

Callsign SJV935
Flight time 1h 24m
Altitude 35000
Route BORAS W12E BIDAK B469 HLM W17 CLP
Aircraft A320/M-SDE3FGHIRWY/LB1

Departure

Time 2026-05-05 13:05
Airport Sultan Mahmud Badaruddin II Airport (WIPP)

Arrival

Time 2026-05-05 14:29
Airport Yogyakarta International Airport (WAHI)
Time Latitude Longitude Altitude Speed Heading
2026-05-05 12:46 -2.89633 104.70501 26 ft 0 kts 23°
2026-05-05 12:55 -2.89647 104.70495 30 ft 2 kts 22°
2026-05-05 12:55 -2.89662 104.70489 29 ft 2 kts 22°
2026-05-05 12:55 -2.89667 104.70486 28 ft 2 kts 22°
2026-05-05 12:56 -2.89676 104.70483 31 ft 2 kts 21°
2026-05-05 12:56 -2.89691 104.70477 30 ft 2 kts 22°
2026-05-05 12:56 -2.89705 104.70469 28 ft 2 kts 74°
2026-05-05 12:56 -2.89707 104.70453 30 ft 2 kts 100°
2026-05-05 12:57 -2.89703 104.70437 28 ft 2 kts 110°
2026-05-05 12:57 -2.89700 104.70429 31 ft 1 kts 114°
2026-05-05 12:57 -2.89700 104.70428 31 ft 0 kts 114°
2026-05-05 12:58 -2.89701 104.70431 29 ft 1 kts 114°
2026-05-05 12:58 -2.89702 104.70432 29 ft 0 kts 114°
2026-05-05 13:00 -2.89703 104.70434 26 ft 3 kts 114°
2026-05-05 13:01 -2.89841 104.70537 25 ft 14 kts 204°
2026-05-05 13:01 -2.89910 104.70591 22 ft 16 kts 105°
2026-05-05 13:01 -2.89948 104.70692 21 ft 12 kts 113°
2026-05-05 13:01 -2.89984 104.70778 20 ft 14 kts 112°
2026-05-05 13:02 -2.90020 104.70866 20 ft 14 kts 113°
2026-05-05 13:02 -2.90063 104.70966 17 ft 17 kts 112°
2026-05-05 13:02 -2.90139 104.71050 18 ft 17 kts 169°
2026-05-05 13:02 -2.90207 104.71025 20 ft 8 kts 223°
2026-05-05 13:03 -2.90240 104.70979 19 ft 9 kts 258°
2026-05-05 13:03 -2.90229 104.70935 21 ft 0 kts 292°
2026-05-05 13:03 -2.90228 104.70932 21 ft 0 kts 292°
2026-05-05 13:04 -2.90168 104.70791 20 ft 56 kts 293°
2026-05-05 13:04 -2.89934 104.70234 22 ft 115 kts 293°
2026-05-05 13:04 -2.89558 104.69348 16 ft 160 kts 292°
2026-05-05 13:04 -2.89103 104.68272 357 ft 175 kts 293°
2026-05-05 13:05 -2.88610 104.67119 851 ft 183 kts 293°
2026-05-05 13:05 -2.88130 104.65947 1499 ft 181 kts 291°
2026-05-05 13:05 -2.87658 104.64758 1978 ft 190 kts 291°
2026-05-05 13:05 -2.86933 104.63556 2152 ft 213 kts 322°
2026-05-05 13:06 -2.85521 104.63056 2338 ft 233 kts
2026-05-05 13:06 -2.83969 104.63641 2590 ft 253 kts 43°
2026-05-05 13:06 -2.82990 104.65125 3072 ft 265 kts 71°
2026-05-05 13:06 -2.82494 104.66920 3817 ft 269 kts 80°
2026-05-05 13:07 -2.82156 104.68778 4595 ft 274 kts 82°
2026-05-05 13:07 -2.81820 104.70676 4917 ft 278 kts 81°
2026-05-05 13:07 -2.81435 104.72581 5216 ft 281 kts 79°
2026-05-05 13:07 -2.80995 104.74481 6098 ft 281 kts 78°
2026-05-05 13:08 -2.80512 104.76382 6850 ft 283 kts 77°
2026-05-05 13:08 -2.80249 104.78332 7573 ft 284 kts 95°
2026-05-05 13:08 -2.80743 104.80239 8277 ft 286 kts 115°
2026-05-05 13:08 -2.81578 104.82054 8987 ft 289 kts 115°
2026-05-05 13:09 -2.82425 104.83886 9682 ft 292 kts 115°
2026-05-05 13:09 -2.83281 104.85741 10264 ft 298 kts 114°
2026-05-05 13:09 -2.84183 104.87696 10400 ft 321 kts 114°
2026-05-05 13:09 -2.85147 104.89791 10528 ft 341 kts 114°
2026-05-05 13:10 -2.86151 104.91977 10918 ft 349 kts 114°
2026-05-05 13:10 -2.87171 104.94204 11442 ft 353 kts 114°
2026-05-05 13:10 -2.88185 104.96416 12007 ft 356 kts 114°
2026-05-05 13:10 -2.89222 104.98680 12562 ft 359 kts 114°
2026-05-05 13:11 -2.90266 105.00957 13125 ft 362 kts 114°
2026-05-05 13:11 -2.91320 105.03251 13662 ft 364 kts 114°
2026-05-05 13:11 -2.92383 105.05567 14143 ft 367 kts 114°
2026-05-05 13:11 -2.93691 105.07769 14609 ft 371 kts 127°
2026-05-05 13:12 -2.95485 105.09648 15085 ft 375 kts 140°
2026-05-05 13:12 -2.97681 105.11075 15562 ft 379 kts 153°
2026-05-05 13:12 -3.00119 105.12005 16021 ft 382 kts 160°
2026-05-05 13:12 -3.02654 105.12849 16486 ft 384 kts 160°
2026-05-05 13:13 -3.05202 105.13707 16952 ft 387 kts 160°
2026-05-05 13:13 -3.07761 105.14574 17401 ft 390 kts 160°
2026-05-05 13:13 -3.10342 105.15451 17857 ft 392 kts 160°
2026-05-05 13:13 -3.12935 105.16332 18288 ft 395 kts 160°
2026-05-05 13:14 -3.15552 105.17219 18673 ft 398 kts 160°
2026-05-05 13:14 -3.18181 105.18108 19063 ft 400 kts 160°
2026-05-05 13:14 -3.20826 105.19000 19447 ft 402 kts 160°
2026-05-05 13:14 -3.23487 105.19898 19827 ft 405 kts 160°
2026-05-05 13:15 -3.26138 105.20794 20219 ft 407 kts 160°
2026-05-05 13:15 -3.28835 105.21708 20611 ft 410 kts 160°
2026-05-05 13:15 -3.31554 105.22629 20989 ft 412 kts 160°
2026-05-05 13:15 -3.34275 105.23558 21357 ft 414 kts 158°
2026-05-05 13:16 -3.36877 105.24797 21707 ft 415 kts 147°
2026-05-05 13:16 -3.39184 105.26471 22047 ft 416 kts 137°
2026-05-05 13:16 -3.41184 105.28565 22393 ft 416 kts 129°
2026-05-05 13:16 -3.43048 105.30789 22724 ft 419 kts 129°
2026-05-05 13:17 -3.44931 105.33025 23062 ft 421 kts 129°
2026-05-05 13:17 -3.46826 105.35272 23395 ft 423 kts 129°
2026-05-05 13:17 -3.48682 105.37471 23668 ft 425 kts 129°
2026-05-05 13:17 -3.50601 105.39736 23937 ft 427 kts 129°
2026-05-05 13:18 -3.52529 105.42009 24199 ft 429 kts 129°
2026-05-05 13:18 -3.54461 105.44290 24481 ft 431 kts 129°
2026-05-05 13:18 -3.56404 105.46590 24755 ft 433 kts 129°
2026-05-05 13:18 -3.58352 105.48897 25023 ft 435 kts 129°
2026-05-05 13:19 -3.60312 105.51217 25291 ft 437 kts 129°
2026-05-05 13:19 -3.62275 105.53542 25557 ft 438 kts 129°
2026-05-05 13:19 -3.64245 105.55882 25818 ft 440 kts 129°
2026-05-05 13:19 -3.66223 105.58234 26075 ft 442 kts 129°
2026-05-05 13:20 -3.68215 105.60597 26337 ft 444 kts 128°
2026-05-05 13:20 -3.70208 105.62958 26607 ft 445 kts 129°
2026-05-05 13:20 -3.72215 105.65332 26861 ft 447 kts 129°
2026-05-05 13:20 -3.74229 105.67712 27074 ft 450 kts 129°
2026-05-05 13:21 -3.76252 105.70105 27320 ft 452 kts 129°
2026-05-05 13:21 -3.78280 105.72510 27763 ft 446 kts 129°
2026-05-05 13:21 -3.80238 105.74827 28886 ft 426 kts 128°
2026-05-05 13:21 -3.82083 105.77008 30037 ft 406 kts 128°
2026-05-05 13:22 -3.83863 105.79114 30946 ft 389 kts 128°
2026-05-05 13:22 -3.85592 105.81167 31461 ft 383 kts 128°
2026-05-05 13:22 -3.87307 105.83206 31780 ft 382 kts 128°
2026-05-05 13:22 -3.89020 105.85244 32020 ft 384 kts 128°
2026-05-05 13:23 -3.90744 105.87297 32251 ft 385 kts 128°
2026-05-05 13:23 -3.92469 105.89348 32475 ft 386 kts 128°
2026-05-05 13:23 -3.94208 105.91412 32697 ft 388 kts 128°
2026-05-05 13:23 -3.95952 105.93478 32904 ft 389 kts 128°
2026-05-05 13:24 -3.97710 105.95557 33106 ft 391 kts 129°
2026-05-05 13:24 -3.99472 105.97641 33289 ft 393 kts 128°
2026-05-05 13:24 -4.01228 105.99723 33459 ft 385 kts 129°
2026-05-05 13:24 -4.02925 106.01722 33612 ft 368 kts 129°
2026-05-05 13:25 -4.04547 106.03630 33740 ft 351 kts 128°
2026-05-05 13:25 -4.06097 106.05450 33791 ft 337 kts 128°
2026-05-05 13:25 -4.07642 106.07278 33298 ft 353 kts 128°
2026-05-05 13:25 -4.09281 106.09230 32708 ft 379 kts 128°
2026-05-05 13:26 -4.11011 106.11310 32399 ft 397 kts 128°
2026-05-05 13:26 -4.12791 106.13446 32540 ft 400 kts 128°
2026-05-05 13:26 -4.14578 106.15589 32736 ft 402 kts 128°
2026-05-05 13:26 -4.16375 106.17743 32933 ft 404 kts 128°
2026-05-05 13:27 -4.18157 106.19877 33127 ft 404 kts 128°
2026-05-05 13:27 -4.19959 106.22038 33329 ft 404 kts 128°
2026-05-05 13:27 -4.21765 106.24202 33529 ft 404 kts 128°
2026-05-05 13:27 -4.23569 106.26360 33732 ft 404 kts 128°
2026-05-05 13:28 -4.25371 106.28520 33924 ft 404 kts 128°
2026-05-05 13:28 -4.27166 106.30672 34105 ft 403 kts 128°
2026-05-05 13:28 -4.28964 106.32828 34283 ft 402 kts 128°
2026-05-05 13:28 -4.30753 106.34978 34462 ft 402 kts 128°
2026-05-05 13:29 -4.32541 106.37126 34660 ft 401 kts 128°
2026-05-05 13:29 -4.34325 106.39272 34824 ft 400 kts 128°
2026-05-05 13:29 -4.37886 106.43554 34914 ft 400 kts 128°
2026-05-05 13:30 -4.41439 106.47826 34915 ft 399 kts 128°
2026-05-05 13:30 -4.45457 106.51609 34913 ft 401 kts 152°
2026-05-05 13:31 -4.48084 106.52549 34912 ft 403 kts 170°
2026-05-05 13:31 -4.50888 106.52644 34913 ft 405 kts 187°
2026-05-05 13:31 -4.56496 106.51779 34914 ft 412 kts 188°
2026-05-05 13:32 -4.62247 106.50856 34916 ft 425 kts 188°
2026-05-05 13:32 -4.68185 106.49910 34916 ft 438 kts 188°
2026-05-05 13:33 -4.74304 106.48961 34916 ft 452 kts 188°
2026-05-05 13:33 -4.80608 106.47980 34915 ft 465 kts 188°
2026-05-05 13:34 -4.87061 106.47312 34911 ft 468 kts 176°
2026-05-05 13:34 -4.93355 106.48456 34913 ft 466 kts 162°
2026-05-05 13:35 -4.99575 106.50328 34915 ft 466 kts 162°
2026-05-05 13:35 -5.05788 106.52192 34915 ft 466 kts 162°
2026-05-05 13:36 -5.12002 106.54064 34912 ft 467 kts 162°
2026-05-05 13:36 -5.18214 106.55932 34925 ft 466 kts 162°
2026-05-05 13:37 -5.24428 106.57795 34928 ft 465 kts 162°
2026-05-05 13:37 -5.30581 106.59639 34925 ft 465 kts 162°
2026-05-05 13:38 -5.36773 106.61500 34926 ft 464 kts 162°
2026-05-05 13:38 -5.42972 106.63361 34924 ft 464 kts 162°
2026-05-05 13:39 -5.49166 106.65223 34926 ft 464 kts 162°
2026-05-05 13:39 -5.55355 106.67083 34922 ft 464 kts 162°
2026-05-05 13:40 -5.60501 106.68629 34922 ft 464 kts 162°
2026-05-05 13:40 -5.66695 106.70484 34923 ft 465 kts 162°
2026-05-05 13:41 -5.72889 106.72349 34920 ft 465 kts 162°
2026-05-05 13:41 -5.79088 106.74219 34921 ft 465 kts 162°
2026-05-05 13:42 -5.85288 106.76086 34921 ft 465 kts 162°
2026-05-05 13:42 -5.91504 106.77956 34920 ft 466 kts 162°
2026-05-05 13:43 -5.97681 106.79808 34923 ft 466 kts 162°
2026-05-05 13:43 -6.03868 106.81894 34922 ft 464 kts 150°
2026-05-05 13:44 -6.06509 106.83715 34922 ft 461 kts 135°
2026-05-05 13:44 -6.08631 106.86065 34917 ft 459 kts 128°
2026-05-05 13:44 -6.12686 106.91028 34915 ft 460 kts 128°
2026-05-05 13:45 -6.16723 106.95992 34918 ft 461 kts 128°
2026-05-05 13:45 -6.20789 107.00977 34918 ft 462 kts 128°
2026-05-05 13:46 -6.24876 107.05973 34917 ft 463 kts 128°
2026-05-05 13:46 -6.28960 107.10979 34924 ft 463 kts 128°
2026-05-05 13:47 -6.33045 107.15996 34931 ft 464 kts 128°
2026-05-05 13:47 -6.37140 107.21023 34935 ft 464 kts 128°
2026-05-05 13:48 -6.41202 107.25997 34952 ft 464 kts 128°
2026-05-05 13:48 -6.45308 107.31035 34955 ft 465 kts 128°
2026-05-05 13:49 -6.49397 107.36066 34953 ft 464 kts 128°
2026-05-05 13:49 -6.53544 107.41042 34967 ft 465 kts 134°
2026-05-05 13:50 -6.58779 107.44811 34965 ft 465 kts 154°
2026-05-05 13:50 -6.64978 107.46637 34963 ft 466 kts 168°
2026-05-05 13:51 -6.71362 107.47890 34984 ft 467 kts 168°
2026-05-05 13:51 -6.77685 107.49149 34984 ft 467 kts 168°
2026-05-05 13:52 -6.83920 107.50910 35001 ft 465 kts 153°
2026-05-05 13:52 -6.86698 107.52548 35000 ft 463 kts 142°
2026-05-05 13:52 -6.89118 107.54676 34999 ft 462 kts 131°
2026-05-05 13:53 -6.92629 107.60031 34995 ft 459 kts 116°
2026-05-05 13:53 -6.95515 107.65770 35003 ft 460 kts 116°
2026-05-05 13:54 -6.98413 107.71519 35006 ft 461 kts 116°
2026-05-05 13:54 -7.01307 107.77282 35003 ft 462 kts 116°
2026-05-05 13:55 -7.04206 107.83061 35004 ft 463 kts 116°
2026-05-05 13:55 -7.07115 107.88849 34999 ft 463 kts 116°
2026-05-05 13:56 -7.10005 107.94607 35007 ft 463 kts 116°
2026-05-05 13:56 -7.12908 108.00397 35008 ft 464 kts 116°
2026-05-05 13:57 -7.15812 108.06191 34996 ft 463 kts 116°
2026-05-05 13:57 -7.18724 108.11987 34998 ft 463 kts 116°
2026-05-05 13:58 -7.21630 108.17778 34994 ft 463 kts 116°
2026-05-05 13:58 -7.24530 108.23574 35002 ft 463 kts 116°
2026-05-05 13:59 -7.28868 108.32251 35003 ft 462 kts 116°
2026-05-05 14:00 -7.32717 108.39938 35003 ft 461 kts 116°
2026-05-05 14:00 -7.36071 108.46645 34981 ft 462 kts 116°
2026-05-05 14:01 -7.38960 108.52428 34978 ft 462 kts 116°
2026-05-05 14:01 -7.41850 108.58211 34969 ft 462 kts 116°
2026-05-05 14:02 -7.44742 108.64006 34972 ft 463 kts 116°
2026-05-05 14:02 -7.47633 108.69793 34975 ft 463 kts 116°
2026-05-05 14:03 -7.50529 108.75590 34731 ft 463 kts 116°
2026-05-05 14:03 -7.51974 108.78491 34497 ft 462 kts 116°
2026-05-05 14:03 -7.53415 108.81384 34268 ft 462 kts 116°
2026-05-05 14:04 -7.54857 108.84281 34064 ft 462 kts 116°
2026-05-05 14:04 -7.56304 108.87183 33829 ft 463 kts 116°
2026-05-05 14:04 -7.57752 108.90085 33570 ft 464 kts 116°
2026-05-05 14:04 -7.59205 108.92992 33318 ft 465 kts 116°
2026-05-05 14:05 -7.60659 108.95905 33069 ft 465 kts 116°
2026-05-05 14:05 -7.62110 108.98818 32807 ft 465 kts 116°
2026-05-05 14:05 -7.63513 109.01758 32560 ft 466 kts 111°
2026-05-05 14:05 -7.64526 109.04850 32068 ft 466 kts 103°
2026-05-05 14:06 -7.65064 109.08088 31300 ft 468 kts 96°
2026-05-05 14:06 -7.65438 109.11322 30789 ft 463 kts 96°
2026-05-05 14:06 -7.65826 109.14543 30191 ft 462 kts 96°
2026-05-05 14:06 -7.66223 109.17745 29532 ft 460 kts 96°
2026-05-05 14:07 -7.66624 109.20933 28938 ft 455 kts 97°
2026-05-05 14:07 -7.67023 109.24084 28349 ft 451 kts 97°
2026-05-05 14:07 -7.67423 109.27245 27752 ft 448 kts 97°
2026-05-05 14:07 -7.67811 109.30310 27184 ft 444 kts 97°
2026-05-05 14:08 -7.68198 109.33393 26601 ft 441 kts 97°
2026-05-05 14:08 -7.68577 109.36449 26039 ft 438 kts 97°
2026-05-05 14:08 -7.68950 109.39488 25479 ft 435 kts 97°
2026-05-05 14:08 -7.69318 109.42502 24935 ft 432 kts 97°
2026-05-05 14:09 -7.69686 109.45498 24409 ft 429 kts 97°
2026-05-05 14:09 -7.70056 109.48477 23882 ft 426 kts 97°
2026-05-05 14:09 -7.70424 109.51429 23363 ft 423 kts 97°
2026-05-05 14:09 -7.70790 109.54360 22834 ft 419 kts 97°
2026-05-05 14:10 -7.71152 109.57254 22347 ft 414 kts 97°
2026-05-05 14:10 -7.71508 109.60121 21852 ft 410 kts 97°
2026-05-05 14:10 -7.71860 109.62964 21358 ft 407 kts 97°
2026-05-05 14:10 -7.72210 109.65785 20858 ft 404 kts 97°
2026-05-05 14:11 -7.72558 109.68587 20345 ft 402 kts 97°
2026-05-05 14:11 -7.72902 109.71378 19836 ft 400 kts 97°
2026-05-05 14:11 -7.73240 109.74153 19306 ft 398 kts 97°
2026-05-05 14:11 -7.73575 109.76883 18780 ft 397 kts 97°
2026-05-05 14:12 -7.73916 109.79635 18231 ft 396 kts 97°
2026-05-05 14:12 -7.74258 109.82386 17642 ft 394 kts 97°
2026-05-05 14:12 -7.74596 109.85122 17094 ft 391 kts 97°
2026-05-05 14:12 -7.74930 109.87830 16541 ft 388 kts 97°
2026-05-05 14:13 -7.75297 109.90506 16004 ft 384 kts 103°
2026-05-05 14:13 -7.76318 109.92960 15458 ft 380 kts 124°
2026-05-05 14:13 -7.78178 109.94820 14926 ft 377 kts 147°
2026-05-05 14:13 -7.80578 109.95787 14692 ft 367 kts 169°
2026-05-05 14:14 -7.83079 109.95826 14508 ft 359 kts 189°
2026-05-05 14:14 -7.85474 109.95256 14327 ft 357 kts 193°
2026-05-05 14:14 -7.87878 109.94624 14130 ft 356 kts 194°
2026-05-05 14:14 -7.90266 109.93977 13926 ft 355 kts 193°
2026-05-05 14:15 -7.92645 109.93328 13748 ft 353 kts 193°
2026-05-05 14:15 -7.95021 109.92681 13532 ft 352 kts 192°
2026-05-05 14:15 -7.97384 109.92043 13341 ft 352 kts 194°
2026-05-05 14:15 -7.99745 109.91408 13094 ft 349 kts 193°
2026-05-05 14:16 -8.02083 109.90782 12625 ft 347 kts 193°
2026-05-05 14:16 -8.04408 109.90164 12169 ft 345 kts 193°
2026-05-05 14:16 -8.06727 109.89554 11609 ft 345 kts 192°
2026-05-05 14:16 -8.09088 109.88935 10779 ft 355 kts 192°
2026-05-05 14:17 -8.11499 109.88305 10149 ft 358 kts 192°
2026-05-05 14:17 -8.13879 109.87793 10021 ft 342 kts 181°
2026-05-05 14:17 -8.16132 109.88191 9906 ft 323 kts 153°
2026-05-05 14:17 -8.17846 109.89530 9788 ft 307 kts 126°
2026-05-05 14:18 -8.18736 109.91387 9656 ft 294 kts 104°
2026-05-05 14:18 -8.19205 109.93398 9077 ft 293 kts 102°
2026-05-05 14:18 -8.19620 109.95404 8632 ft 283 kts 96°
2026-05-05 14:18 -8.19440 109.97298 8223 ft 273 kts 69°
2026-05-05 14:19 -8.18426 109.98873 7744 ft 270 kts 43°
2026-05-05 14:19 -8.16780 109.99793 7060 ft 277 kts 15°
2026-05-05 14:19 -8.14924 110.00191 6763 ft 266 kts 13°
2026-05-05 14:19 -8.13150 110.00435 6618 ft 251 kts
2026-05-05 14:20 -8.11467 110.00176 6433 ft 245 kts 345°
2026-05-05 14:20 -8.09915 109.99429 6092 ft 249 kts 331°
2026-05-05 14:20 -8.08423 109.98527 5763 ft 250 kts 330°
2026-05-05 14:20 -8.06924 109.97625 5445 ft 251 kts 330°
2026-05-05 14:21 -8.05426 109.96726 5140 ft 250 kts 330°
2026-05-05 14:21 -8.03956 109.95845 5003 ft 241 kts 330°
2026-05-05 14:21 -8.02527 109.94990 4719 ft 239 kts 332°
2026-05-05 14:21 -8.01063 109.94116 4131 ft 249 kts 331°
2026-05-05 14:22 -7.99567 109.93220 3522 ft 250 kts 330°
2026-05-05 14:22 -7.98078 109.92328 2918 ft 246 kts 330°
2026-05-05 14:22 -7.96629 109.91461 2356 ft 238 kts 331°
2026-05-05 14:22 -7.95283 109.90653 2186 ft 222 kts 331°
2026-05-05 14:23 -7.93988 109.89883 2103 ft 206 kts 335°
2026-05-05 14:23 -7.92743 109.89429 2043 ft 177 kts 352°
2026-05-05 14:23 -7.91586 109.89161 2032 ft 166 kts 352°
2026-05-05 14:23 -7.90466 109.88913 2033 ft 161 kts 359°
2026-05-05 14:24 -7.89377 109.88956 2037 ft 155 kts 17°
2026-05-05 14:24 -7.88381 109.89343 2037 ft 153 kts 37°
2026-05-05 14:24 -7.87579 109.90002 2039 ft 146 kts 54°
2026-05-05 14:24 -7.86968 109.90811 2039 ft 145 kts 58°
2026-05-05 14:25 -7.86395 109.91641 2036 ft 142 kts 67°
2026-05-05 14:25 -7.86096 109.92581 2033 ft 142 kts 85°
2026-05-05 14:25 -7.86167 109.93561 2019 ft 141 kts 110°
2026-05-05 14:25 -7.86485 109.94508 1920 ft 142 kts 108°
2026-05-05 14:26 -7.86804 109.95452 1775 ft 142 kts 110°
2026-05-05 14:26 -7.87134 109.96389 1608 ft 142 kts 110°
2026-05-05 14:26 -7.87470 109.97325 1411 ft 142 kts 110°
2026-05-05 14:26 -7.87809 109.98260 1242 ft 142 kts 110°
2026-05-05 14:27 -7.88146 109.99185 1067 ft 142 kts 110°
2026-05-05 14:27 -7.88487 110.00122 910 ft 141 kts 109°
2026-05-05 14:27 -7.88827 110.01054 744 ft 143 kts 111°
2026-05-05 14:27 -7.89175 110.02008 561 ft 147 kts 109°
2026-05-05 14:28 -7.89518 110.02960 322 ft 146 kts 108°
2026-05-05 14:28 -7.89867 110.03906 193 ft 143 kts 109°
2026-05-05 14:28 -7.90207 110.04829 40 ft 137 kts 109°
2026-05-05 14:28 -7.90463 110.05532 40 ft 65 kts 110°
2026-05-05 14:29 -7.90570 110.05830 43 ft 38 kts 110°
2026-05-05 14:29 -7.90626 110.05978 41 ft 29 kts 111°
2026-05-05 14:29 -7.90665 110.06212 39 ft 27 kts 85°
2026-05-05 14:29 -7.90642 110.06326 38 ft 12 kts 76°
2026-05-05 14:30 -7.90628 110.06424 38 ft 16 kts 84°
2026-05-05 14:30 -7.90545 110.06490 34 ft 19 kts 18°
2026-05-05 14:30 -7.90474 110.06507 34 ft 13 kts 352°
2026-05-05 14:30 -7.90427 110.06427 34 ft 15 kts 284°
2026-05-05 14:31 -7.90388 110.06323 34 ft 17 kts 291°
2026-05-05 14:31 -7.90343 110.06206 34 ft 19 kts 291°
2026-05-05 14:31 -7.90303 110.06098 34 ft 13 kts 290°
2026-05-05 14:31 -7.90270 110.06006 34 ft 15 kts 290°
2026-05-05 14:32 -7.90232 110.05903 35 ft 13 kts 290°
2026-05-05 14:32 -7.90205 110.05832 35 ft 9 kts 291°